User: anonymous   Login
Location: Unspecified
(0.0000°N, 0.0000°E)
Time: 10:12:32
(UTC+02:00)
Language:

Cosmos 773 Rocket - Orbit

View from above orbital plane
View from above orbital plane
View from above satellite
View from above satellite

Ground track
Ground track

The orbit data is extracted from the following two-line orbital elements,

1 08344U 75094B   15148.95218603  .00000087  00000-0  36578-4 0  9995
2 08344 074.0587 067.9253 0021657 160.1770 200.0231 14.38962286 77772
Epoch (UTC): 28 May 2015 22:51:08
Eccentricity: 0.0021657
inclination: 74.0587°
perigee height: 746 km
apogee height: 777 km
right ascension of ascending node: 67.9253°
argument of perigee: 160.1770°
revolutions per day: 14.38962286
mean anomaly at epoch: 200.0231°
orbit number at epoch: 7777

The dashed part of the orbit path shows where the satellite is in the earth's shadow,  

DLR